Location: Aytr�
(46.1357°N, 1.1145°W)
Time: 05:17:47
(UTC+00:00)

Nauka - Pass Details

Date: 19 September 2021
Orbit: 418 x 423 km, 51.6° (Epoch: 18 October)

Event Time Altitude Azimuth Distance (km) Brightness Sun altitude
Rises 21:08:18 0° 277° (W) 2,365 ? -29.8°
Reaches altitude 10° 21:10:32 10° 287° (WNW) 1,503 ? -30.1°
Enters shadow 21:11:08 14° 293° (WNW) 1,291 ? -30.2°
